Location: Brahman Valley
(40.6513°N, 111.8855°W)
Time: 22:02:11
(UTC+00:00)

Vanguard 2 - Pass Details

Date: 19 May 2021
Orbit: 552 x 2937 km, 32.9° (Epoch: 14 June)

Event Time Altitude Azimuth Distance (km) Brightness Sun altitude
Rises 13:42:37 0° 262° (W) 4,216 10.7 16.2°
Reaches altitude 10° 13:45:04 10° 258° (WSW) 3,504 10.3 16.7°
Maximum altitude 13:54:18 58° 182° (S) 2,235 10.1 18.4°
Drops below altitude 10° 14:09:07 10° 110° (ESE) 5,426 13.1 21.2°
Sets 14:13:56 0° 107° (ESE) 6,634 13.4 22.1°
